Location: Unspecified
(0.0000°N, 0.0000°E)
Time: 07:48:13
(UTC+00:00)

Courier 1B - Pass Details

Date: 02 October 2023
Orbit: 962 x 1208 km, 28.3° (Epoch: 06 December)

Event Time Altitude Azimuth Distance (km) Brightness Sun altitude
Rises 14:59:33 0° 330° (NNW) 4,082 11.0 42.4°
Reaches altitude 10° 15:05:46 10° 6° (N) 3,134 10.2 40.8°
Maximum altitude 15:07:17 11° 17° (NNE) 3,089 10.0 40.4°
Drops below altitude 10° 15:08:48 10° 29° (NNE) 3,132 10.0 40.1°
Sets 15:14:58 0° 65° (ENE) 4,072 10.3 38.5°
